Wind_Speed
34 34 35 35 34 34 36 37 38 35 33 32 35 37 37 37 38 38 39 41 42 43 45 47 49 51 53 56 58 61 64 66 69 71 73 76 78 80 81 82 84 85 86 86
35 36 37 37 34 35 37 38 38 37 35 35 36 36 37 38 39 40 42 43 45 46 48 50 53 55 57 60 63 65 68 70 73 75 78 79 81 82 83 85 85 86 86 86
38 37 39 38 35 36 38 38 38 38 37 36 36 36 37 39 40 42 44 45 47 49 51 54 56 59 61 64 67 70 72 75 77 79 81 82 84 85 85 86 86 85 84 83
41 40 41 39 38 38 39 38 38 38 37 36 36 37 39 41 42 44 46 48 50 52 54 57 60 62 65 68 71 74 76 78 80 82 83 85 85 86 86 86 85 83 80 77
43 43 43 39 39 39 40 39 38 37 37 37 38 40 41 43 44 46 49 51 53 55 58 60 63 66 69 72 75 77 79 81 82 84 85 86 86 86 85 84 81 77 73 70
44 45 45 42 40 40 41 40 37 37 38 39 40 41 43 45 46 49 51 54 56 58 61 64 67 70 73 75 78 80 81 82 84 85 86 86 85 84 82 79 75 70 65 62
43 45 45 42 41 39 39 39 38 38 39 40 41 43 45 47 49 52 54 57 59 62 65 68 71 74 76 78 80 81 83 84 85 85 85 84 82 79 76 72 67 63 59 56
44 45 44 42 41 40 40 40 39 40 40 42 43 45 47 50 52 55 57 60 63 65 68 71 74 76 78 80 81 83 84 84 84 83 81 79 76 72 68 65 60 56 54 50
43 43 44 43 43 41 41 40 40 41 43 44 46 48 50 53 55 58 60 63 66 68 71 73 76 78 80 81 83 83 83 82 81 79 75 72 69 65 61 58 55 52 49 46
42 42 42 42 42 41 41 41 42 44 45 47 49 51 53 56 58 60 63 66 69 71 73 74 76 78 81 82 83 83 82 79 77 73 69 65 62 59 56 54 51 49 45 43
41 41 41 41 41 41 41 42 44 45 47 49 51 54 56 58 61 64 66 69 71 73 74 76 78 79 81 82 82 81 78 75 71 67 64 60 56 54 52 50 49 46 44 42
41 41 41 41 41 42 43 44 46 48 50 52 54 57 59 61 64 66 69 71 72 74 76 77 79 80 80 81 79 77 73 69 65 62 58 55 52 49 47 47 45 44 43 42
41 41 41 41 42 43 45 47 48 50 53 55 57 60 62 64 66 68 70 72 73 75 77 78 79 79 79 78 75 72 68 64 61 57 55 52 50 47 43 41 42 42 42 41
41 41 41 42 43 45 47 49 51 53 55 58 60 62 64 66 68 69 71 73 75 76 78 79 79 78 76 73 70 67 63 60 56 54 51 49 47 45 43 40 38 37 38 39
41 41 42 44 45 47 49 51 53 56 58 60 62 64 66 68 69 70 72 74 75 77 78 78 77 74 71 69 65 62 58 55 52 50 48 46 45 43 41 40 38 36 35 35
41 42 44 46 47 49 51 54 56 58 60 62 64 65 67 68 69 71 73 75 77 77 77 76 74 71 67 64 61 57 54 51 49 47 46 44 43 41 40 38 37 36 34 34
43 44 46 48 49 52 54 56 58 60 62 63 65 66 67 69 70 72 74 75 76 76 74 73 70 66 62 60 56 53 50 47 45 44 43 42 40 39 38 37 35 34 34 34
45 47 48 50 52 54 56 58 60 61 63 64 66 67 69 71 73 74 75 76 75 73 70 68 65 61 58 55 52 49 46 44 42 42 41 39 38 38 37 35 34 33 33 33
48 49 51 52 54 56 57 59 61 62 64 66 67 69 71 73 75 76 76 75 73 70 66 63 60 56 53 51 48 45 43 41 40 39 39 38 36 36 36 34 33 33 33 32
49 51 52 54 56 58 60 61 63 64 66 68 70 72 73 74 75 75 74 71 69 67 62 58 54 51 48 45 43 41 39 38 37 37 37 35 34 34 34 33 32 32 31 30
51 53 55 56 58 60 62 64 66 67 68 70 72 74 74 74 74 73 71 67 63 60 56 52 49 46 43 41 39 37 37 36 36 35 35 33 33 32 31 30 30 30 29 28
54 55 57 59 60 62 64 66 68 69 70 72 73 74 74 73 71 69 66 63 58 54 50 46 44 41 39 37 35 35 34 34 34 34 33 32 31 31 30 29 29 28 28 27
56 58 60 62 63 65 66 68 69 71 72 72 73 73 72 70 67 64 59 55 52 48 44 41 39 37 36 34 33 33 32 33 33 32 32 31 30 29 28 28 27 27 27 26
59 61 63 64 66 67 68 69 70 71 72 72 71 71 69 65 61 58 55 50 46 43 39 37 35 34 33 32 32 31 32 32 32 31 31 30 29 28 27 26 26 26 25 24
62 63 65 66 68 69 70 71 71 71 71 69 68 65 63 60 57 52 49 45 42 39 36 34 33 32 32 31 31 31 31 31 31 30 29 28 28 27 26 25 25 25 24 23
63 65 66 68 69 70 71 71 70 69 68 66 63 59 57 54 51 47 44 41 38 36 34 32 32 32 31 31 31 31 31 31 30 29 28 27 26 25 25 24 24 23 22 21
64 65 66 67 68 69 69 69 67 65 63 61 57 53 50 48 45 42 40 38 35 34 33 32 32 32 31 31 31 31 30 29 29 28 27 26 25 24 23 23 23 21 21 20
Wind_Direction
263 265 268 270 273 276 279 281 283 285 283 281 281 283 285 286 286 287 288 290 292 294 295 297 298 299 300 301 301 302 302 303 303 303 302 302 302 302 301 300 300 299 299 298
263 266 269 271 275 278 280 282 284 284 284 282 282 282 283 284 285 287 289 291 293 295 296 298 299 300 301 302 302 303 303 304 304 304 304 303 303 303 302 302 302 301 301 300
265 268 270 273 275 277 279 281 282 284 285 283 281 281 282 284 286 288 290 292 293 295 297 298 300 301 302 303 303 304 304 305 305 305 305 304 304 304 304 304 304 303 302 301
269 269 271 275 276 278 278 279 280 282 283 282 281 282 283 285 287 288 290 292 294 296 298 300 301 302 303 304 305 305 306 306 306 306 306 306 306 306 306 305 305 304 303 302
271 272 272 275 278 278 278 278 280 281 280 280 281 283 285 286 288 289 292 294 296 298 299 301 302 303 304 305 306 307 307 308 308 308 308 308 308 307 307 306 306 305 304 303
271 273 275 277 277 277 278 279 279 278 278 280 282 284 286 288 290 292 294 296 298 300 301 302 303 304 306 307 307 308 309 309 309 309 309 309 309 308 308 308 307 306 305 304
271 274 276 279 280 279 278 279 278 277 279 281 283 285 287 289 291 294 296 298 299 301 303 304 305 306 307 308 309 310 310 310 310 311 311 310 310 309 309 308 308 307 307 306
270 273 276 277 279 279 279 279 279 281 282 283 285 287 289 291 293 295 297 299 301 303 304 306 306 307 309 309 310 310 311 311 311 311 311 311 311 310 310 309 309 309 308 307
270 272 274 276 276 277 278 279 281 282 283 285 287 289 291 293 295 297 299 301 303 304 306 307 308 309 310 310 311 311 312 312 312 312 311 311 311 311 311 311 310 310 310 309
270 271 272 273 275 277 278 280 282 283 285 287 289 291 293 295 297 300 301 303 304 306 307 309 309 310 311 311 312 312 312 312 312 312 312 311 311 311 312 311 311 312 311 311
269 270 271 273 276 278 279 281 282 284 286 289 291 293 296 298 300 302 303 305 306 307 308 309 310 311 312 312 312 312 313 312 312 312 312 312 311 312 312 312 312 312 312 312
267 270 272 275 277 279 281 283 285 287 289 291 294 296 298 300 302 303 304 306 307 308 309 310 311 311 312 312 312 312 313 313 313 313 313 312 312 312 312 312 313 313 313 313
269 271 274 276 277 279 282 284 286 289 291 294 296 298 300 301 303 304 305 306 307 309 310 310 311 312 312 312 312 312 313 313 313 313 313 313 313 312 312 312 312 312 312 313
271 273 275 276 278 280 283 285 288 291 293 295 297 298 300 302 303 304 306 307 308 309 310 310 311 311 311 311 312 312 312 312 313 313 313 313 314 314 314 313 312 312 312 313
270 273 275 277 280 282 285 287 290 292 294 296 297 299 300 302 303 305 306 307 308 309 310 310 310 311 311 310 311 311 311 311 312 313 313 314 314 314 315 315 314 314 314 314
271 273 276 279 281 284 286 288 290 292 294 296 298 299 301 302 303 305 306 307 308 309 309 309 309 310 310 310 310 311 311 311 312 313 313 314 314 314 315 315 315 315 315 315
273 276 279 281 284 286 288 289 291 293 295 296 298 300 301 302 304 305 306 307 308 308 309 308 309 309 309 309 310 310 311 311 311 312 313 314 314 315 315 316 316 316 315 315
277 279 282 284 286 287 289 291 293 294 296 298 299 300 301 303 304 305 306 307 307 307 308 307 307 308 308 308 309 310 310 310 311 313 314 314 314 315 316 317 317 316 316 316
280 282 285 286 288 289 291 292 294 295 297 298 299 300 302 303 304 305 306 307 307 306 306 306 306 306 307 308 308 309 309 310 312 313 314 314 315 316 317 316 316 317 317 317
283 284 286 288 289 291 292 294 295 296 298 299 300 301 302 304 304 305 306 306 306 306 306 305 305 305 306 307 308 308 309 310 312 314 314 315 315 316 316 316 317 318 318 318
284 286 287 289 290 292 293 295 296 297 298 299 300 302 303 304 304 305 305 305 305 304 305 304 304 304 305 306 307 308 309 310 312 314 315 315 315 316 317 317 318 319 319 320
286 287 289 290 291 292 293 295 296 297 298 299 301 302 302 303 304 304 305 305 304 303 303 302 302 303 304 305 306 308 309 311 312 314 315 316 316 316 317 317 318 318 319 320
287 288 289 290 291 292 293 295 296 297 299 300 301 302 302 303 304 304 304 303 302 302 301 301 301 302 304 304 305 307 309 311 313 314 315 316 316 316 317 317 318 319 320 320
288 289 290 291 292 293 294 295 297 298 300 301 302 302 303 303 303 303 303 303 301 300 300 299 300 302 303 304 305 306 308 310 312 313 314 315 316 316 317 317 318 320 320 320
289 290 291 292 293 294 295 296 298 299 300 301 302 302 302 302 302 302 302 301 300 299 298 298 299 301 302 303 304 305 308 310 311 312 313 314 315 315 316 316 317 319 319 319
290 291 292 293 294 296 297 298 299 300 300 300 301 301 300 300 301 301 300 300 299 298 297 297 298 300 301 302 303 304 307 308 309 310 312 313 313 314 314 315 316 317 318 318
290 291 293 294 296 297 298 299 299 300 300 300 300 300 299 298 298 298 298 298 297 296 296 296 297 299 300 301 302 303 305 306 307 308 310 311 311 312 313 314 315 315 316 317
Height
5747 5747 5746 5746 5747 5746 5744 5742 5741 5742 5740 5739 5734 5732 5729 5726 5723 5721 5718 5715 5712 5709 5705 5701 5697 5692 5687 5681 5675 5669 5662 5655 5648 5640 5631 5623 5614 5604 5595 5585 5575 5565 5556 5546
5739 5738 5737 5737 5739 5737 5735 5734 5732 5731 5731 5729 5726 5723 5720 5717 5714 5711 5708 5705 5702 5698 5694 5690 5685 5680 5674 5668 5661 5654 5646 5638 5630 5622 5612 5603 5593 5583 5573 5562 5552 5541 5531 5520
5730 5730 5727 5729 5732 5729 5727 5725 5724 5722 5722 5719 5717 5714 5711 5708 5705 5702 5699 5695 5692 5688 5683 5678 5672 5667 5660 5653 5646 5638 5629 5621 5611 5602 5592 5582 5571 5560 5549 5539 5529 5518 5507 5495
5719 5720 5719 5723 5721 5720 5717 5716 5715 5713 5711 5709 5707 5704 5701 5699 5696 5692 5688 5685 5681 5676 5671 5665 5659 5653 5645 5637 5629 5621 5611 5602 5591 5581 5571 5560 5549 5538 5526 5515 5505 5494 5483 5472
5709 5708 5708 5713 5711 5709 5707 5706 5706 5703 5701 5699 5697 5694 5691 5688 5685 5681 5677 5673 5669 5664 5658 5651 5645 5638 5630 5621 5612 5603 5593 5582 5571 5559 5549 5538 5527 5515 5503 5492 5482 5471 5461 5451
5699 5697 5697 5702 5701 5698 5698 5696 5696 5693 5691 5689 5687 5685 5682 5678 5674 5670 5665 5661 5656 5650 5644 5637 5629 5621 5613 5604 5594 5584 5574 5563 5551 5538 5527 5516 5505 5493 5481 5470 5460 5451 5443 5433
5689 5687 5688 5691 5689 5688 5688 5688 5685 5683 5681 5679 5676 5674 5671 5666 5662 5658 5653 5648 5642 5636 5629 5621 5612 5604 5595 5586 5575 5565 5554 5543 5531 5518 5506 5494 5483 5472 5461 5451 5442 5434 5426 5419
5680 5678 5681 5679 5678 5678 5677 5675 5674 5672 5670 5668 5665 5662 5659 5655 5650 5645 5640 5634 5628 5621 5613 5604 5595 5586 5578 5568 5558 5547 5536 5524 5512 5499 5486 5474 5463 5454 5443 5433 5426 5418 5412 5406
5671 5672 5670 5668 5667 5666 5666 5665 5663 5661 5659 5657 5654 5650 5646 5642 5637 5632 5626 5620 5613 5605 5597 5588 5577 5567 5558 5549 5538 5527 5516 5504 5493 5481 5469 5457 5446 5437 5429 5420 5411 5405 5398 5392
5660 5659 5658 5657 5656 5656 5655 5654 5652 5650 5647 5645 5641 5638 5633 5629 5623 5617 5611 5604 5596 5589 5580 5571 5561 5550 5539 5529 5519 5508 5497 5486 5475 5464 5454 5444 5433 5423 5415 5407 5399 5393 5386 5381
5648 5648 5647 5647 5646 5645 5644 5642 5640 5638 5635 5632 5628 5624 5619 5614 5608 5602 5595 5587 5580 5571 5563 5554 5543 5532 5521 5510 5499 5489 5479 5469 5458 5448 5438 5430 5422 5412 5403 5396 5387 5381 5375 5370
5638 5638 5638 5637 5636 5634 5633 5631 5628 5625 5622 5618 5614 5610 5604 5599 5592 5586 5579 5571 5563 5554 5545 5536 5526 5515 5503 5492 5481 5471 5462 5452 5443 5433 5425 5416 5409 5403 5394 5386 5378 5371 5364 5359
5627 5628 5627 5626 5625 5623 5621 5619 5616 5613 5609 5605 5600 5595 5589 5583 5577 5570 5562 5554 5546 5537 5528 5518 5508 5497 5486 5475 5464 5454 5445 5436 5428 5420 5412 5404 5396 5389 5384 5379 5370 5362 5355 5350
5617 5617 5616 5615 5613 5611 5609 5606 5603 5599 5595 5590 5585 5580 5574 5568 5561 5554 5546 5537 5529 5520 5510 5500 5490 5480 5469 5459 5449 5440 5431 5423 5415 5407 5400 5392 5385 5378 5372 5366 5361 5356 5348 5341
5607 5606 5605 5603 5601 5599 5597 5593 5590 5586 5581 5576 5570 5565 5558 5552 5545 5538 5529 5520 5512 5503 5492 5482 5473 5463 5453 5443 5435 5427 5418 5411 5403 5396 5389 5382 5375 5368 5362 5356 5350 5345 5340 5334
5596 5595 5593 5591 5589 5587 5584 5580 5576 5571 5566 5561 5555 5549 5543 5536 5529 5521 5513 5503 5494 5485 5475 5465 5456 5447 5438 5429 5421 5414 5407 5399 5391 5385 5378 5372 5365 5359 5353 5347 5341 5336 5331 5326
5584 5582 5581 5579 5576 5573 5569 5565 5561 5556 5551 5546 5540 5533 5527 5520 5513 5505 5496 5487 5477 5467 5457 5447 5439 5431 5423 5415 5408 5401 5395 5388 5381 5375 5368 5362 5356 5350 5344 5338 5333 5328 5323 5318
5571 5569 5567 5565 5562 5558 5554 5550 5545 5540 5535 5529 5523 5516 5509 5502 5494 5487 5479 5470 5461 5452 5441 5431 5423 5416 5409 5402 5395 5389 5383 5377 5371 5365 5359 5353 5347 5341 5335 5330 5325 5320 5316 5310
5558 5556 5553 5550 5547 5543 5538 5534 5529 5524 5518 5511 5506 5499 5492 5484 5476 5468 5459 5451 5442 5434 5427 5417 5409 5402 5396 5389 5383 5378 5372 5367 5361 5356 5350 5344 5338 5333 5327 5322 5317 5313 5308 5303
5544 5541 5538 5535 5531 5527 5522 5517 5512 5507 5501 5494 5487 5481 5475 5467 5457 5449 5441 5433 5424 5414 5409 5403 5396 5390 5384 5378 5373 5367 5362 5357 5352 5347 5341 5336 5331 5325 5320 5315 5310 5305 5301 5296
5530 5527 5523 5520 5516 5511 5505 5500 5495 5490 5484 5476 5469 5462 5455 5448 5440 5430 5422 5417 5410 5400 5394 5388 5382 5377 5372 5368 5363 5358 5353 5348 5343 5338 5333 5328 5323 5318 5313 5308 5303 5299 5294 5290
5515 5512 5508 5504 5500 5496 5490 5483 5477 5472 5466 5459 5451 5443 5435 5429 5422 5414 5406 5398 5393 5386 5380 5375 5370 5366 5361 5357 5353 5349 5344 5339 5335 5330 5325 5320 5315 5311 5306 5301 5297 5292 5288 5284
5499 5496 5492 5487 5483 5479 5474 5467 5460 5454 5448 5441 5433 5424 5416 5410 5403 5396 5391 5385 5377 5372 5368 5363 5359 5355 5351 5348 5344 5340 5336 5331 5327 5322 5317 5313 5308 5303 5299 5295 5291 5287 5282 5278
5483 5479 5475 5470 5464 5460 5455 5450 5443 5436 5429 5422 5414 5405 5397 5391 5387 5380 5373 5369 5364 5360 5356 5352 5348 5345 5341 5338 5335 5331 5327 5323 5318 5314 5310 5305 5301 5297 5293 5289 5285 5281 5277 5273
5466 5462 5457 5452 5446 5440 5435 5430 5425 5418 5410 5404 5397 5388 5380 5373 5369 5365 5360 5355 5351 5348 5345 5341 5338 5335 5332 5329 5325 5322 5318 5314 5310 5306 5302 5298 5294 5290 5286 5283 5279 5276 5272 5268
5449 5444 5439 5434 5427 5421 5415 5410 5404 5398 5391 5385 5380 5373 5366 5360 5355 5350 5347 5343 5340 5337 5334 5331 5328 5325 5322 5319 5316 5313 5310 5306 5302 5298 5295 5291 5287 5284 5280 5277 5274 5270 5267 5263
5431 5426 5421 5417 5410 5402 5396 5390 5384 5379 5372 5366 5362 5357 5351 5346 5342 5338 5335 5332 5329 5326 5324 5321 5318 5316 5313 5310 5307 5304 5301 5298 5294 5291 5288 5284 5281 5278 5274 5271 5268 5265 5262 5259